This demonstration page uses our WeatherBlox Daily Observations layout. Learn more.

Left ArrowRight Arrow

39.01783, -85.05884

Hourly Observations for July 31, 2022

Temp ( °F °C ) Dew Point ( °F °C ) Humidity (%) Winds ( mph kmh ) Pressure ( in mb ) Visibility ( mi km ) Precip ( " mm )
12:52 am 00:52 Mostly Cloudy 71 21.7 63 17.2 76 76 ESE 6 9 30.15 1021 10 16 0.00 0.00
1:52 am 01:52 Cloudy 71 21.7 62 16.7 73 73 Calm 30.14 1021 10 16 0.00 0.00
2:52 am 02:52 Clear 70 21.1 63 17.2 79 79 ESE 3 6 30.13 1020 10 16 0.00 0.00
3:52 am 03:52 Cloudy 70 21.1 63 17.2 79 79 E 5 7 30.10 1019 10 16 0.00 0.00
4:52 am 04:52 Cloudy with Light Rain 69 20.6 64 17.8 84 84 ESE 3 6 30.11 1020 10 16 0.00 0.00
5:52 am 05:52 Cloudy with Light Rain 68 20 66 18.9 93 93 ESE 5 7 30.11 1020 6 10 0.03 0.76
6:52 am 06:52 Cloudy with Light Rain 67 19.4 66 18.9 97 97 SSE 3 6 30.12 1020 6 10 0.08 2.03
7:52 am 07:52 Cloudy with Light Rain 67 19.4 66 18.9 97 97 E 5 7 30.12 1020 4 6 0.12 3.05
8:52 am 08:52 Mostly Cloudy with Rain 66 18.9 66 18.9 100 100 E 6 9 30.12 1020 3 5 0.17 4.32
9:52 am 09:52 Cloudy with Light Rain 68 20 67 19.4 96 96 ENE 6 9 30.13 1020 7 11 0.02 0.51
10:52 am 10:52 Cloudy 69 20.6 67 19.4 93 93 SE 9 15 30.12 1020 8 13 0.00 0.00
11:52 am 11:52 Mostly Cloudy 72 22.2 68 20 87 87 SE 8 13 30.13 1020 10 16 0.00 0.00
12:52 pm 12:52 Cloudy 72 22.2 68 20 87 87 VRB 7 11 30.12 1020 10 16 0.00 0.00
1:52 pm 13:52 Mostly Cloudy 72 22.2 68 20 87 87 S 8 13 30.11 1020 9 14 0.00 0.00
2:52 pm 14:52 Mostly Cloudy 73 22.8 67 19.4 81 81 S 6 9 30.10 1019 10 16 0.00 0.00
3:52 pm 15:52 Mostly Cloudy 73 22.8 68 20 84 84 S 9 15 30.09 1019 10 16 0.00 0.00
4:52 pm 16:52 Mostly Cloudy 75 23.9 68 20 79 79 S 8 13 30.08 1019 10 16 0.00 0.00
5:31 pm 17:31 Mostly Cloudy 75 23.9 68 20 79 79 S 6 9 30.07 1018 10 16 0.00 0.00
5:52 pm 17:52 Mostly Cloudy 75 23.9 68 20 79 79 S 3 6 30.07 1018 10 16 0.00 0.00
6:52 pm 18:52 Partly Cloudy 76 24.4 69 20.6 79 79 SSW 6 9 30.06 1018 10 16 0.00 0.00
7:52 pm 19:52 Partly Cloudy 74 23.3 69 20.6 85 85 S 7 11 30.04 1017 10 16 0.00 0.00
8:52 pm 20:52 Partly Cloudy 72 22.2 69 20.6 91 91 SSW 7 11 30.04 1017 10 16 0.00 0.00
9:52 pm 21:52 Mostly Clear 70 21.1 69 20.6 97 97 S 6 9 30.04 1017 10 16 0.00 0.00
10:52 pm 22:52 Mostly Clear 69 20.6 68 20 96 96 S 6 9 30.04 1017 10 16 0.00 0.00
11:52 pm 23:52 Partly Cloudy 69 20.6 69 20.6 100 100 S 7 11 30.04 1017 10 16 0.00 0.00

Powered by AerisWeather